# Land Stadt Wetter Temperatur Luftdruck Luftfeuchtigkeit Sichtweite Windgeschwindigkeit Windrichtung Ortszeit
1 ad Andorra la Vella Clear 12 1030 28 10000 2 252 02.08.2018 14:22
2 ae Dubai Clear 26 1006 61 10000 9 230 02.08.2018 14:21
3 af Kabul Rain 8 1019 87 10000 4 305 02.08.2018 14:21
4 ar Buenos Aires Clouds 15 1023 81 9000 29 110 02.08.2018 14:22
5 ar Esquel Clouds 9 1022 63 10000 9 48 02.08.2018 14:22
6 ar Ushuaia Clear 11 1008 58 10000 4 0 02.08.2018 14:22
7 at Innsbruck Clouds 10 1031 86 10000 3 270 02.08.2018 14:23
8 at Wien Clear 14 1032 72 10000 8 338 02.08.2018 14:22
9 au Alice Springs Clear 12 1021 56 10000 2 192 02.08.2018 14:21
10 au Darwin Clouds 28 1012 81 10000 11 70 02.08.2018 14:22
11 au Perth Clear 14 1019 81 10000 7 120 02.08.2018 14:21
12 au Sydney Clouds 22 1020 70 10000 11 180 02.08.2018 14:22
13 bg Sofia Clouds 14 1027 65 10000 17 260 02.08.2018 14:21
14 bg Warna Clear 20 1024 60 10000 20 350 02.08.2018 14:21
15 bo La Paz Clouds 8 1035 80 10000 4 0 02.08.2018 14:22
16 bo Potisi Clouds 17 1040 48 10000 6 20 02.08.2018 14:22
17 br Manaus Clouds 27 1015 78 10000 13 50 02.08.2018 14:21
18 br Rio de Janeiro Clouds 27 1014 78 7000 20 150 02.08.2018 14:22
19 bs Nassau Clouds 24 1016 88 10000 15 160 02.08.2018 14:22
20 ca Montreal Rain 12 1011 92 10000 20 130 02.08.2018 14:22
21 cd Kisangani Clouds 30 1011 59 10000 1 215 02.08.2018 14:23
22 ch Andermatt Clouds 9 1033 100 0 7 342 02.08.2018 14:23
23 ch Bern Clear 16 1032 51 10000 16 5 02.08.2018 14:23
24 ck Avarua Rain 27 1015 89 10000 24 80 02.08.2018 14:22
25 cl Santiago Clouds 16 946 49 10000 6 269 02.08.2018 14:23
26 cn Lhasa Clear 6 1018 44 10000 3 158 02.08.2018 14:22
27 cn Peking Clear 23 1008 27 10000 12 211 02.08.2018 14:23
28 cn Shanghai Clear 23 1015 60 10000 14 150 02.08.2018 14:21
29 de Berlin Clouds 15 1028 58 10000 13 220 02.08.2018 14:21
30 de Braunschweig Clouds 22 1022 55 10000 24 260 02.08.2018 14:21
31 de Bremen Drizzle 10 1028 88 10000 17 210 02.08.2018 14:22
32 de Dresden Clouds 19 1027 59 10000 15 270 02.08.2018 14:22
33 de Emden Clouds 14 1029 88 10000 15 237 02.08.2018 14:21
34 de Flensburg Clouds 8 1022 92 10000 15 232 02.08.2018 14:21
35 de Frankfurt Clear 13 1033 59 10000 7 200 02.08.2018 14:22
36 de Freiburg Clouds 17 1022 58 10000 8 158 02.08.2018 14:22
37 de Hamburg Drizzle 13 1028 94 8000 20 210 02.08.2018 14:21
38 de Hannover Clouds 22 1022 59 10000 26 250 02.08.2018 14:21
39 de Helgoland Clouds 10 1029 95 10000 23 251 02.08.2018 14:22
40 de Hiddensee Clouds 11 1012 96 10000 29 216 02.08.2018 14:21
41 de Kassel Clouds 19 1027 68 10000 20 190 02.08.2018 14:21
42 de Köln Clouds 17 1032 63 10000 6 280 02.08.2018 14:21
43 de Magdeburg Clouds 15 1031 67 10000 9 282 02.08.2018 14:22
44 de München Clouds 8 1030 88 10000 2 199 02.08.2018 14:21
45 de Nürnberg Clear 23 1027 49 10000 13 190 02.08.2018 14:21
46 de Oberstdorf Clouds 5 1033 77 10000 7 147 02.08.2018 14:21
47 de Stuttgart Clear 13 1033 60 10000 6 160 02.08.2018 14:22
48 de Torfhaus Clouds 10 1032 81 10000 6 243 02.08.2018 14:22
49 de Trier Clouds 17 1033 65 10000 8 245 02.08.2018 14:21
50 do Santo Domingo Rain 28 1015 80 10000 11 240 02.08.2018 14:21
51 ec San Cristobal Clouds 26 1010 86 10000 13 120 02.08.2018 14:22
52 eg Kairo Clear 25 1016 41 10000 15 10 02.08.2018 14:22
53 es Barcelona Clear 24 1028 40 10000 11 350 02.08.2018 14:22
54 es Las Palmas de Gran Canaria Clear 21 1017 54 10000 12 320 02.08.2018 14:21
55 es Madrid Clear 18 1028 49 10000 11 350 02.08.2018 14:23
56 es Palma de Mallorca Clouds 18 1029 55 10000 33 350 02.08.2018 14:22
57 es Sevilla Clear 24 1024 45 10000 24 50 02.08.2018 14:22
58 es Tarifa Clear 19 1024 82 10000 26 76 02.08.2018 14:21
59 et Addis Abeba Clouds 17 1016 50 10000 10 79 02.08.2018 14:23
60 fi Helsinki Clouds 7 1010 92 10000 27 230 02.08.2018 14:21
61 fi Rovaniemi Clouds 3 1005 75 10000 15 340 02.08.2018 14:21
62 fj Suva Clouds 25 1009 100 10000 4 340 02.08.2018 14:21
63 fr Bordeaux Clear 13 1034 71 10000 15 320 02.08.2018 14:21
64 fr Nizza Clear 22 1027 60 10000 7 80 02.08.2018 14:22
65 fr Paris Clear 19 1023 73 10000 13 260 02.08.2018 14:22
66 gb Glasgow Clouds 12 1019 90 10000 22 220 02.08.2018 14:21
67 gb London Clouds 13 1026 84 10000 13 230 02.08.2018 14:22
68 gb Manchester Clouds 11 1024 80 10000 13 210 02.08.2018 14:21
69 gl Nuuk Clouds -3 1010 80 10000 17 360 02.08.2018 14:22
70 gr Athen Clear 21 1020 47 10000 8 22 02.08.2018 14:22
71 id Jakarta Clouds 30 1009 74 6000 9 10 02.08.2018 14:22
72 ie Dublin Clouds 13 1020 86 10000 15 210 02.08.2018 14:21
73 in Jagatsukh Clouds 4 1025 60 10000 18 14 02.08.2018 14:22
74 in Mumbai Mist 26 1010 78 2500 7 20 02.08.2018 14:22
75 in Nagpur Haze 25 1013 73 3000 6 80 02.08.2018 14:21
76 iq Bagdad Clear 23 1014 43 10000 15 360 02.08.2018 14:22
77 is Reykjavik Clouds 8 986 76 10000 9 310 02.08.2018 14:22
78 it Mailand Clear 15 1029 79 10000 2 0 02.08.2018 14:21
79 it Palermo Clouds 16 1024 80 10000 9 110 02.08.2018 14:22
80 it Rom Clear 17 1025 59 10000 6 230 02.08.2018 14:23
81 jp Nagasaki Rain 21 1015 64 10000 28 230 02.08.2018 14:21
82 jp Tokio Rain 15 1024 67 10000 17 60 02.08.2018 14:22
83 ke Nairobi Rain 20 1024 77 10000 4 0 02.08.2018 14:22
84 kr Seoul Clear 20 1019 40 10000 11 290 02.08.2018 14:21
85 ma Casablanca Clear 22 1018 46 10000 11 80 02.08.2018 14:23
86 ma Marrakesch Clear 35 1017 10 10000 7 10 02.08.2018 14:23
87 mg Antananarivo Clouds 21 1019 78 10000 13 300 02.08.2018 14:21
88 mn Ulaanbaatar Clouds 16 1002 23 10000 18 250 02.08.2018 14:23
89 mn Uliastai Clouds 10 997 37 10000 28 224 02.08.2018 14:23
90 mv Male Clouds 30 1010 89 10000 2 0 02.08.2018 14:23
91 mx Mexiko Stadt Clouds 14 1030 58 10000 13 60 02.08.2018 14:21
92 mx Veracruz Clouds 21 1020 70 10000 6 337 02.08.2018 14:21
93 no Hammerfest Clouds 4 992 81 10000 7 40 02.08.2018 14:22
94 no Oslo Clouds 8 1007 96 2207 13 198 02.08.2018 14:23
95 nz Wellington Rain 12 1004 97 3200 37 190 02.08.2018 14:23
96 pe Cusco Clouds 10 1033 87 10000 6 110 02.08.2018 14:23
97 pg Port Moresby Clouds 31 1011 62 10000 9 300 02.08.2018 14:21
98 ph Manila Clouds 31 1011 70 10000 17 120 02.08.2018 14:21
99 pt Lissabon Clear 19 1027 60 10000 11 60 02.08.2018 14:22
100 qa Doha Clear 28 1009 57 10000 32 360 02.08.2018 14:23
101 ru Amderma Snow -6 978 95 110 34 69 02.08.2018 14:23
102 ru Anadyr Clouds -15 990 84 10000 39 360 02.08.2018 14:23
103 ru Jakutsk Clear -13 1004 78 10000 4 290 02.08.2018 14:22
104 ru Moskau Clouds 12 1020 49 10000 15 282 02.08.2018 14:22
105 ru Surgut Snow -6 1000 88 800 22 160 02.08.2018 14:23
106 ru Werchojansk Clouds -19 1019 76 10000 3 285 02.08.2018 14:22
107 sa Riad Clouds 20 1009 32 10000 15 92 02.08.2018 14:21
108 sb Honiara Clouds 27 1011 87 10000 3 144 02.08.2018 14:22
109 se Stockholm Rain 6 1012 90 10000 20 180 02.08.2018 14:23
110 th Bangkok Clouds 38 1007 52 10000 24 190 02.08.2018 14:21
111 tr Alanya Clear 19 1016 44 10000 5 336 02.08.2018 14:22
112 tr Ankara Clear 16 1018 53 10000 15 360 02.08.2018 14:23
113 tr Istanbul Clear 15 1022 76 10000 24 40 02.08.2018 14:23
114 ua Kiew Clouds 13 1021 73 10000 2 278 02.08.2018 14:21
115 us Chicago Clouds 13 1013 60 10000 19 340 02.08.2018 14:23
116 us Death Valley Clouds 23 1013 24 10000 4 341 02.08.2018 14:22
117 us Denver Clouds 13 1013 37 10000 2 301 02.08.2018 14:21
118 us Fairbanks Clouds -1 1006 70 10000 5 90 02.08.2018 14:23
119 us Honolulu Clouds 25 1015 80 10000 15 160 02.08.2018 14:22
120 us Las Vegas Clear 19 1012 24 10000 19 160 02.08.2018 14:21
121 us Los Angeles Mist 13 1012 89 6437 11 250 02.08.2018 14:22
122 us Miami Clouds 28 1016 66 10000 33 130 02.08.2018 14:23
123 us New York Clouds 10 1000 65 10000 32 270 02.08.2018 14:22
124 us Nome Snow -11 997 92 402 50 110 02.08.2018 14:23
125 us Tucson Clear 15 1018 37 10000 17 140 02.08.2018 14:21
126 uy Montevideo Clouds 16 1021 59 10000 28 150 02.08.2018 14:22
127 vn Hanoi Clouds 29 1011 70 10000 18 179 02.08.2018 14:21
128 za Kapstadt Clear 23 1013 42 10000 20 170 02.08.2018 14:22